Weather History for Longville, MN

Change the Weather History Date:

Sunday, August 25, 2013

  Actual Average (KPWC) Record (KPWC)
Temperature  
Mean Temperature 81 °F -  
Max Temperature 89 °F 74 °F 89 °F (2013)
Min Temperature 73 °F 52 °F 35 °F (2008)
Cooling Degree Days 16    
Growing Degree Days 31 (Base 50)    
Moisture  
Dew Point 73 °F    
Average Humidity 79    
Maximum Humidity 100    
Minimum Humidity 59    
Precipitation  
Precipitation 0.00 in - - ()
Sea Level Pressure  
Sea Level Pressure 29.92 in    
Wind  
Wind Speed 6 mph (SSW)    
Max Wind Speed 12 mph    
Max Gust Speed 17 mph    
Visibility 10 miles    
Events Thunderstorm    
Averages and records for this station are not official NWS values.
T = Trace of Precipitation, MM = Missing Value Source: NWS Daily Summary

Daily Weather History Graph

Daily Weather History Graph

Search for Another Location

Airport:

Trip Planner

Search our weather history database for the weather conditions in past years. The results will help you decide how hot, cold, wet, or windy it might be!

Date:

Astronomy

Aug. 25, 2013 Rise Set
Actual Time 6:27 AM CDT 8:09 PM CDT
Civil Twilight 5:55 AM CDT 8:41 PM CDT
Nautical Twilight 5:15 AM CDT 9:20 PM CDT
Astronomical Twilight 4:33 AM CDT 10:02 PM CDT
Moon 10:16 PM CDT (8/25) 11:53 AM CDT (8/25)
Length of Visible Light 14h 46m
Length of Day
13h 41m
Waning Gibbous, 75% of the Moon is Illuminated
Aug 25
Waning Gibbous
Aug 28
Last Quarter
Sep 5
New
Sep 12
First Quarter
Sep 19
Full

Hourly Weather History & Observations

Time (CDT) Temp. Heat Index Dew Point Humidity Pressure Visibility Wind Dir Wind Speed Gust Speed Precip Events Conditions
12:16 AM 78.8 °F - 71.6 °F 78% 29.87 in 10.0 mi South 9.2 mph - N/A   Clear
12:35 AM 77.0 °F - 71.6 °F 83% 29.88 in 10.0 mi South 8.1 mph - N/A   Clear
12:56 AM 77.0 °F - 71.6 °F 83% 29.88 in 10.0 mi South 11.5 mph 17.3 mph N/A   Clear
1:16 AM 77.0 °F - 71.6 °F 83% 29.88 in 10.0 mi South 9.2 mph - N/A   Clear
1:36 AM 77.0 °F - 71.6 °F 83% 29.88 in 10.0 mi South 9.2 mph - N/A   Clear
1:56 AM 77.0 °F - 71.6 °F 83% 29.88 in 10.0 mi South 6.9 mph - N/A   Clear
2:15 AM 77.0 °F - 73.4 °F 89% 29.87 in 10.0 mi South 9.2 mph - N/A   Clear
2:36 AM 75.2 °F - 71.6 °F 89% 29.87 in 10.0 mi South 10.4 mph 16.1 mph N/A   Clear
2:56 AM 75.2 °F - 71.6 °F 89% 29.87 in 10.0 mi South 9.2 mph - N/A   Clear
3:16 AM 75.2 °F - 71.6 °F 89% 29.88 in 10.0 mi South 8.1 mph - N/A   Clear
3:36 AM 75.2 °F - 71.6 °F 89% 29.88 in 10.0 mi SSW 9.2 mph 16.1 mph N/A   Clear
3:56 AM 75.2 °F - 71.6 °F 89% 29.89 in 10.0 mi South 9.2 mph - N/A   Clear
4:16 AM 75.2 °F - 71.6 °F 89% 29.89 in 10.0 mi South 8.1 mph - N/A   Clear
4:36 AM 75.2 °F - 71.6 °F 89% 29.89 in 10.0 mi SSW 5.8 mph - N/A   Clear
4:56 AM 75.2 °F - 71.6 °F 89% 29.90 in 10.0 mi SSW 4.6 mph - N/A   Clear
5:16 AM 75.2 °F - 71.6 °F 89% 29.90 in 10.0 mi SSW 6.9 mph - N/A Thunderstorm Clear
5:36 AM 75.2 °F - 71.6 °F 89% 29.91 in 10.0 mi SSW 9.2 mph - N/A   Clear
5:56 AM 75.2 °F - 71.6 °F 89% 29.93 in 10.0 mi SW 6.9 mph - N/A Thunderstorm Thunderstorm
6:16 AM 75.2 °F - 71.6 °F 89% 29.94 in 10.0 mi SW 3.5 mph - N/A Thunderstorm Thunderstorm
6:36 AM 75.2 °F - 71.6 °F 89% 29.92 in 10.0 mi SSW 4.6 mph - N/A   Clear
6:56 AM 75.2 °F - 71.6 °F 89% 29.91 in 10.0 mi SSE 4.6 mph - N/A Thunderstorm Clear
7:16 AM 75.2 °F - 71.6 °F 89% 29.90 in 10.0 mi South 8.1 mph - N/A   Clear
7:36 AM 75.2 °F - 71.6 °F 89% 29.90 in 10.0 mi South 6.9 mph - N/A   Clear
7:56 AM 75.2 °F - 71.6 °F 89% 29.92 in 10.0 mi South 8.1 mph - N/A   Clear
8:16 AM 75.2 °F - 71.6 °F 89% 29.93 in 10.0 mi SSW 4.6 mph - N/A   Clear
8:36 AM 77.0 °F - 71.6 °F 83% 29.93 in 10.0 mi South 5.8 mph - N/A   Clear
8:56 AM 78.8 °F - 71.6 °F 78% 29.92 in 10.0 mi South 5.8 mph - N/A   Clear
9:16 AM 78.8 °F - 71.6 °F 78% 29.93 in 10.0 mi South 5.8 mph - N/A   Clear
9:36 AM 80.6 °F 84.6 °F 71.6 °F 74% 29.93 in 10.0 mi SSW 3.5 mph - N/A   Clear
9:56 AM 80.6 °F 85.4 °F 73.4 °F 79% 29.93 in 10.0 mi South 6.9 mph - N/A   Clear
10:16 AM 82.4 °F 88.2 °F 73.4 °F 74% 29.94 in 10.0 mi SSW 3.5 mph - N/A   Clear
10:36 AM 84.2 °F 90.9 °F 73.4 °F 70% 29.94 in 10.0 mi SSW 5.8 mph - N/A   Clear
10:56 AM 84.2 °F 90.9 °F 73.4 °F 70% 29.94 in 10.0 mi SSW 8.1 mph - N/A   Clear
11:16 AM 84.2 °F 90.9 °F 73.4 °F 70% 29.94 in 10.0 mi SSW 5.8 mph - N/A   Clear
11:36 AM 86.0 °F 93.4 °F 73.4 °F 66% 29.94 in 10.0 mi SW 6.9 mph - N/A   Clear
11:56 AM 86.0 °F 93.4 °F 73.4 °F 66% 29.94 in 10.0 mi SW 5.8 mph - N/A   Clear
12:16 PM 87.8 °F 95.6 °F 73.4 °F 62% 29.94 in 10.0 mi SW 4.6 mph - N/A   Clear
12:36 PM 87.8 °F 95.6 °F 73.4 °F 62% 29.94 in 10.0 mi South 4.6 mph - N/A   Clear
12:56 PM 87.8 °F 95.6 °F 73.4 °F 62% 29.93 in 10.0 mi SW 3.5 mph - N/A   Clear
1:15 PM 89.6 °F 98.2 °F 73.4 °F 59% 29.93 in 10.0 mi SW 3.5 mph - N/A   Clear
1:35 PM 89.6 °F 98.2 °F 73.4 °F 59% 29.93 in 10.0 mi SSW 5.8 mph - N/A   Clear
1:55 PM 89.6 °F 98.2 °F 73.4 °F 59% 29.93 in 10.0 mi SSW 4.6 mph - N/A   Clear
2:16 PM 89.6 °F 98.2 °F 73.4 °F 59% 29.93 in 10.0 mi SSW 3.5 mph - N/A   Clear
2:36 PM 89.6 °F 98.2 °F 73.4 °F 59% 29.93 in 10.0 mi South 3.5 mph - N/A   Clear
2:55 PM 87.8 °F 95.6 °F 73.4 °F 62% 29.92 in 10.0 mi Calm Calm - N/A   Clear
3:16 PM 87.8 °F 95.6 °F 73.4 °F 62% 29.92 in 10.0 mi SE 3.5 mph - N/A   Clear
3:35 PM 87.8 °F 97.6 °F 75.2 °F 66% 29.92 in 10.0 mi SSE 6.9 mph - N/A   Clear
3:56 PM 89.6 °F 98.2 °F 73.4 °F 59% 29.92 in 10.0 mi SSW 8.1 mph - N/A   Clear
4:16 PM 89.6 °F 98.2 °F 73.4 °F 59% 29.92 in 10.0 mi South 8.1 mph - N/A   Clear
4:36 PM 87.8 °F 95.6 °F 73.4 °F 62% 29.92 in 10.0 mi South 6.9 mph - N/A   Clear
4:56 PM 89.6 °F 98.2 °F 73.4 °F 59% 29.92 in 10.0 mi SSW 6.9 mph - N/A   Clear
5:15 PM 89.6 °F 98.2 °F 73.4 °F 59% 29.92 in 10.0 mi SSE 8.1 mph - N/A   Clear
5:35 PM 87.8 °F 95.6 °F 73.4 °F 62% 29.92 in 10.0 mi SSE 6.9 mph - N/A   Clear
5:56 PM 87.8 °F 95.6 °F 73.4 °F 62% 29.92 in 10.0 mi South 4.6 mph - N/A   Clear
6:16 PM 87.8 °F 95.6 °F 73.4 °F 62% 29.92 in 10.0 mi SW 4.6 mph - N/A Thunderstorm Clear
6:36 PM 82.4 °F 89.5 °F 75.2 °F 79% 29.91 in 10.0 mi Calm Calm - N/A Thunderstorm Clear
6:56 PM 80.6 °F 86.2 °F 75.2 °F 84% 29.94 in 10.0 mi Calm Calm - N/A   Clear
7:15 PM 80.6 °F 87.1 °F 77.0 °F 89% 29.92 in 10.0 mi Calm Calm - N/A   Clear
7:36 PM 82.4 °F 90.9 °F 77.0 °F 84% 29.92 in 10.0 mi Calm Calm - N/A   Clear
7:56 PM 80.6 °F 87.1 °F 77.0 °F 89% 29.93 in 10.0 mi Calm Calm - N/A   Clear
8:16 PM 78.8 °F - 75.2 °F 89% 29.94 in 10.0 mi Calm Calm - N/A Thunderstorm Clear
8:36 PM 78.8 °F - 75.2 °F 89% 29.94 in 7.0 mi Calm Calm - N/A   Clear
8:56 PM 77.0 °F - 75.2 °F 94% 29.94 in 7.0 mi Calm Calm - N/A   Clear
9:17 PM 77.0 °F - 75.2 °F 94% 29.95 in 5.0 mi Calm Calm - N/A   Clear
9:36 PM 75.2 °F - 75.2 °F 100% 29.95 in 4.0 mi Calm Calm - N/A   Clear
9:56 PM 75.2 °F - 73.4 °F 94% 29.95 in 3.0 mi NW 3.5 mph - N/A   Clear
10:16 PM 77.0 °F - 75.2 °F 94% 29.95 in 10.0 mi Calm Calm - N/A   Clear
10:36 PM 75.2 °F - 75.2 °F 100% 29.95 in 10.0 mi Calm Calm - N/A   Clear
10:56 PM 75.2 °F - 73.4 °F 94% 29.95 in 10.0 mi Calm Calm - N/A   Clear
11:16 PM 75.2 °F - 73.4 °F 94% 29.95 in 10.0 mi Calm Calm - N/A   Clear
11:36 PM 73.4 °F - 71.6 °F 94% 29.94 in 7.0 mi Calm Calm - N/A   Clear
11:56 PM 73.4 °F - 71.6 °F 94% 29.95 in 3.0 mi Calm Calm - N/A   Clear